Time,TemperatureF,DewpointF,PressureIn,WindDirection,WindDirectionDegrees,WindSpeedMPH,WindSpeedGustMPH,Humidity,HourlyPrecipIn,Conditions,Clouds,dailyrainin,SoftwareType,DateUTC
2013-06-08 00:02:00,56.0,56.0,-100.00,West,270,0.0,0.0,99,-99.99,,,-99.99,,2013-06-08 05:02:00,
2013-06-08 00:12:00,56.0,56.0,-100.00,West,260,0.0,0.0,99,-99.99,,,-99.99,,2013-06-08 05:12:00,
2013-06-08 00:22:00,56.0,56.0,-100.00,West,260,0.0,0.0,99,-99.99,,,-99.99,,2013-06-08 05:22:00,
2013-06-08 00:32:00,56.0,56.0,-100.00,West,275,0.0,0.0,99,-99.99,,,-99.99,,2013-06-08 05:32:00,
2013-06-08 00:42:00,56.0,55.0,-100.00,WNW,295,0.0,0.0,99,-99.99,,,-99.99,,2013-06-08 05:42:00,
2013-06-08 00:53:00,56.0,55.0,-100.00,WNW,295,0.0,0.0,99,-99.99,,,-99.99,,2013-06-08 05:53:00,
2013-06-08 01:02:00,55.0,55.0,-100.00,West,280,0.0,0.0,99,-99.99,,,-99.99,,2013-06-08 06:02:00,
2013-06-08 01:12:00,55.0,55.0,-100.00,WNW,290,0.0,0.0,99,-99.99,,,-99.99,,2013-06-08 06:12:00,
2013-06-08 01:22:00,55.0,55.0,-100.00,WNW,290,0.0,0.0,99,-99.99,,,-99.99,,2013-06-08 06:22:00,
2013-06-08 01:32:00,55.0,55.0,-100.00,WNW,295,0.0,0.0,99,-99.99,,,-99.99,,2013-06-08 06:32:00,
2013-06-08 01:42:00,55.0,55.0,-100.00,West,275,0.0,0.0,99,-99.99,,,-99.99,,2013-06-08 06:42:00,
2013-06-08 01:53:00,55.0,55.0,-100.00,West,275,0.0,0.0,99,-99.99,,,-99.99,,2013-06-08 06:53:00,
2013-06-08 02:02:00,55.0,54.0,-100.00,West,280,0.0,0.0,99,-99.99,,,-99.99,,2013-06-08 07:02:00,
2013-06-08 02:12:00,55.0,55.0,-100.00,West,280,0.0,0.0,99,-99.99,,,-99.99,,2013-06-08 07:12:00,
2013-06-08 02:22:00,55.0,55.0,-100.00,West,280,0.0,0.0,99,-99.99,,,-99.99,,2013-06-08 07:22:00,
2013-06-08 02:32:00,54.0,54.0,-100.00,West,280,0.0,0.0,99,-99.99,,,-99.99,,2013-06-08 07:32:00,
2013-06-08 02:42:00,54.0,54.0,-100.00,NW,310,0.0,0.0,99,-99.99,,,-99.99,,2013-06-08 07:42:00,
2013-06-08 02:52:00,54.0,54.0,-100.00,NW,310,0.0,0.0,99,-99.99,,,-99.99,,2013-06-08 07:52:00,
2013-06-08 03:02:00,54.0,54.0,-100.00,NW,310,0.0,0.0,99,-99.99,,,-99.99,,2013-06-08 08:02:00,
2013-06-08 03:12:00,54.0,54.0,-100.00,WNW,300,0.0,0.0,99,-99.99,,,-99.99,,2013-06-08 08:12:00,
2013-06-08 03:22:00,54.0,54.0,-100.00,WNW,300,0.0,0.0,99,-99.99,,,-99.99,,2013-06-08 08:22:00,
2013-06-08 03:32:00,53.0,53.0,-100.00,NW,315,0.0,0.0,99,-99.99,,,-99.99,,2013-06-08 08:32:00,
2013-06-08 03:42:00,54.0,54.0,-100.00,ENE,75,0.0,0.0,99,-99.99,,,-99.99,,2013-06-08 08:42:00,
2013-06-08 03:53:00,54.0,54.0,-100.00,ENE,75,0.0,0.0,99,-99.99,,,-99.99,,2013-06-08 08:53:00,
2013-06-08 04:02:00,53.0,53.0,-100.00,East,100,0.0,0.0,99,-99.99,,,-99.99,,2013-06-08 09:02:00,
2013-06-08 04:12:00,53.0,53.0,-100.00,East,85,0.0,0.0,99,-99.99,,,-99.99,,2013-06-08 09:12:00,
2013-06-08 04:22:00,53.0,53.0,-100.00,East,85,0.0,0.0,99,-99.99,,,-99.99,,2013-06-08 09:22:00,
2013-06-08 04:33:00,53.0,53.0,-100.00,East,95,0.0,0.0,99,-99.99,,,-99.99,,2013-06-08 09:33:00,
2013-06-08 04:43:00,53.0,53.0,-100.00,East,85,0.0,0.0,99,-99.99,,,-99.99,,2013-06-08 09:43:00,
2013-06-08 04:53:00,53.0,53.0,-100.00,East,85,0.0,0.0,99,-99.99,,,-99.99,,2013-06-08 09:53:00,
2013-06-08 05:03:00,53.0,52.0,-100.00,East,85,0.0,0.0,99,-99.99,,,-99.99,,2013-06-08 10:03:00,
2013-06-08 05:12:00,53.0,52.0,-100.00,NNE,25,0.0,0.0,99,-99.99,,,-99.99,,2013-06-08 10:12:00,
2013-06-08 05:22:00,53.0,52.0,-100.00,NNE,25,0.0,0.0,99,-99.99,,,-99.99,,2013-06-08 10:22:00,
2013-06-08 05:33:00,52.0,52.0,-100.00,North,0,0.0,0.0,99,-99.99,,,-99.99,,2013-06-08 10:33:00,
2013-06-08 05:43:00,52.0,52.0,-100.00,North,0,0.0,0.0,99,-99.99,,,-99.99,,2013-06-08 10:43:00,
2013-06-08 05:53:00,52.0,52.0,-100.00,North,0,0.0,0.0,99,-99.99,,,-99.99,,2013-06-08 10:53:00,
2013-06-08 06:02:00,52.0,52.0,-100.00,NE,35,0.0,0.0,99,-99.99,,,-99.99,,2013-06-08 11:02:00,
2013-06-08 06:12:00,52.0,52.0,-100.00,NE,35,0.0,0.0,99,-99.99,,,-99.99,,2013-06-08 11:12:00,
2013-06-08 06:22:00,52.0,52.0,-100.00,NE,35,0.0,0.0,99,-99.99,,,-99.99,,2013-06-08 11:22:00,
2013-06-08 06:32:00,52.0,52.0,-100.00,NNE,15,0.0,0.0,99,-99.99,,,-99.99,,2013-06-08 11:32:00,
2013-06-08 06:42:00,53.0,53.0,-100.00,ENE,70,0.0,0.0,99,-99.99,,,-99.99,,2013-06-08 11:42:00,
2013-06-08 06:52:00,53.0,53.0,-100.00,ENE,70,0.0,0.0,99,-99.99,,,-99.99,,2013-06-08 11:52:00,
2013-06-08 07:02:00,55.0,54.0,-100.00,East,95,0.0,0.0,99,-99.99,,,-99.99,,2013-06-08 12:02:00,
2013-06-08 07:12:00,55.0,55.0,-100.00,ESE,105,0.0,0.0,99,-99.99,,,-99.99,,2013-06-08 12:12:00,
2013-06-08 07:22:00,55.0,55.0,-100.00,ESE,105,0.0,0.0,99,-99.99,,,-99.99,,2013-06-08 12:22:00,
2013-06-08 07:32:00,56.0,56.0,-100.00,East,100,0.0,0.0,99,-99.99,,,-99.99,,2013-06-08 12:32:00,
2013-06-08 07:42:00,58.0,57.0,-100.00,SE,140,0.0,0.0,99,-99.99,,,-99.99,,2013-06-08 12:42:00,
2013-06-08 07:52:00,58.0,57.0,-100.00,SE,140,0.0,0.0,99,-99.99,,,-99.99,,2013-06-08 12:52:00,
2013-06-08 08:02:00,59.0,59.0,-100.00,East,100,0.0,0.0,99,-99.99,,,-99.99,,2013-06-08 13:02:00,
2013-06-08 08:12:00,60.0,60.0,-100.00,East,100,0.0,0.0,99,-99.99,,,-99.99,,2013-06-08 13:12:00,
2013-06-08 08:22:00,60.0,60.0,-100.00,East,100,0.0,0.0,99,-99.99,,,-99.99,,2013-06-08 13:22:00,
2013-06-08 08:32:00,62.0,62.0,-100.00,East,100,0.0,0.0,99,-99.99,,,-99.99,,2013-06-08 13:32:00,
2013-06-08 08:42:00,65.0,64.0,-100.00,ESE,120,0.0,0.0,98,-99.99,,,-99.99,,2013-06-08 13:42:00,
2013-06-08 08:52:00,65.0,64.0,-100.00,ESE,120,0.0,0.0,98,-99.99,,,-99.99,,2013-06-08 13:52:00,
2013-06-08 09:02:00,64.0,59.0,-100.00,South,185,0.0,0.0,83,-99.99,,,-99.99,,2013-06-08 14:02:00,
2013-06-08 09:12:00,66.0,59.0,-100.00,South,180,0.0,0.0,78,-99.99,,,-99.99,,2013-06-08 14:12:00,
2013-06-08 09:22:00,66.0,59.0,-100.00,South,180,0.0,0.0,78,-99.99,,,-99.99,,2013-06-08 14:22:00,
2013-06-08 09:32:00,67.0,58.0,-100.00,SSW,200,0.0,0.0,73,-99.99,,,-99.99,,2013-06-08 14:32:00,
2013-06-08 09:42:00,69.0,59.0,-100.00,SSW,200,0.0,0.0,71,-99.99,,,-99.99,,2013-06-08 14:42:00,
2013-06-08 09:52:00,69.0,59.0,-100.00,SSW,200,0.0,0.0,71,-99.99,,,-99.99,,2013-06-08 14:52:00,
2013-06-08 10:02:00,70.0,58.0,-100.00,South,185,0.0,0.0,67,-99.99,,,-99.99,,2013-06-08 15:02:00,
2013-06-08 10:12:00,71.0,58.0,-100.00,ESE,120,0.0,0.0,64,-99.99,,,-99.99,,2013-06-08 15:12:00,
2013-06-08 10:22:00,71.0,58.0,-100.00,ESE,120,0.0,0.0,64,-99.99,,,-99.99,,2013-06-08 15:22:00,
2013-06-08 10:32:00,74.0,59.0,-100.00,SSW,200,0.0,0.0,60,-99.99,,,-99.99,,2013-06-08 15:32:00,
2013-06-08 10:42:00,74.0,57.0,-100.00,SE,145,0.0,0.0,55,-99.99,,,-99.99,,2013-06-08 15:42:00,
2013-06-08 10:53:00,74.0,57.0,-100.00,SE,145,0.0,0.0,55,-99.99,,,-99.99,,2013-06-08 15:53:00,
2013-06-08 11:03:00,76.0,56.0,-100.00,SE,135,0.0,0.0,50,-99.99,,,-99.99,,2013-06-08 16:03:00,
2013-06-08 11:12:00,73.0,55.0,-100.00,South,180,0.0,0.0,53,-99.99,,,-99.99,,2013-06-08 16:12:00,
2013-06-08 11:23:00,73.0,55.0,-100.00,South,180,0.0,0.0,53,-99.99,,,-99.99,,2013-06-08 16:23:00,
2013-06-08 11:33:00,73.0,55.0,-100.00,South,190,0.0,0.0,52,-99.99,,,-99.99,,2013-06-08 16:33:00,
2013-06-08 11:42:00,72.0,54.0,-100.00,West,260,0.0,0.0,53,-99.99,,,-99.99,,2013-06-08 16:42:00,
2013-06-08 11:53:00,72.0,54.0,-100.00,West,260,0.0,0.0,53,-99.99,,,-99.99,,2013-06-08 16:53:00,
2013-06-08 12:02:00,72.0,56.0,-100.00,West,260,0.0,0.0,57,-99.99,,,-99.99,,2013-06-08 17:02:00,
2013-06-08 12:12:00,74.0,57.0,-100.00,South,175,0.0,0.0,57,-99.99,,,-99.99,,2013-06-08 17:12:00,
2013-06-08 12:23:00,74.0,57.0,-100.00,South,175,0.0,0.0,57,-99.99,,,-99.99,,2013-06-08 17:23:00,
2013-06-08 12:32:00,74.0,56.0,-100.00,South,180,0.0,0.0,54,-99.99,,,-99.99,,2013-06-08 17:32:00,
2013-06-08 12:42:00,76.0,56.0,-100.00,South,185,0.0,0.0,50,-99.99,,,-99.99,,2013-06-08 17:42:00,
2013-06-08 12:52:00,76.0,56.0,-100.00,South,185,0.0,0.0,50,-99.99,,,-99.99,,2013-06-08 17:52:00,
2013-06-08 13:02:00,76.0,55.0,-100.00,South,185,0.0,0.0,48,-99.99,,,-99.99,,2013-06-08 18:02:00,
2013-06-08 13:12:00,76.0,55.0,-100.00,South,175,0.0,0.0,47,-99.99,,,-99.99,,2013-06-08 18:12:00,
2013-06-08 13:22:00,76.0,55.0,-100.00,South,175,0.0,0.0,47,-99.99,,,-99.99,,2013-06-08 18:22:00,
2013-06-08 13:32:00,76.0,56.0,-100.00,SW,235,0.0,0.0,51,-99.99,,,-99.99,,2013-06-08 18:32:00,
2013-06-08 13:42:00,77.0,57.0,-100.00,West,280,0.0,0.0,50,-99.99,,,-99.99,,2013-06-08 18:42:00,
2013-06-08 13:52:00,77.0,57.0,-100.00,West,280,0.0,0.0,50,-99.99,,,-99.99,,2013-06-08 18:52:00,
2013-06-08 14:03:00,76.0,56.0,-100.00,SSW,200,0.0,0.0,50,-99.99,,,-99.99,,2013-06-08 19:03:00,
2013-06-08 14:12:00,76.0,55.0,-100.00,South,185,0.0,0.0,48,-99.99,,,-99.99,,2013-06-08 19:12:00,
2013-06-08 14:22:00,76.0,55.0,-100.00,South,185,0.0,0.0,48,-99.99,,,-99.99,,2013-06-08 19:22:00,
2013-06-08 14:32:00,78.0,56.0,-100.00,South,180,0.0,0.0,46,-99.99,,,-99.99,,2013-06-08 19:32:00,
2013-06-08 14:42:00,78.0,54.0,-100.00,SW,230,0.0,0.0,43,-99.99,,,-99.99,,2013-06-08 19:42:00,
2013-06-08 14:53:00,78.0,54.0,-100.00,SW,230,0.0,0.0,43,-99.99,,,-99.99,,2013-06-08 19:53:00,
2013-06-08 15:02:00,79.0,55.0,-100.00,South,180,0.0,0.0,43,-99.99,,,-99.99,,2013-06-08 20:02:00,
2013-06-08 15:12:00,78.0,54.0,-100.00,South,175,0.0,0.0,43,-99.99,,,-99.99,,2013-06-08 20:12:00,
2013-06-08 15:22:00,78.0,54.0,-100.00,South,175,0.0,0.0,43,-99.99,,,-99.99,,2013-06-08 20:22:00,
2013-06-08 15:32:00,79.0,54.0,-100.00,SW,230,0.0,0.0,43,-99.99,,,-99.99,,2013-06-08 20:32:00,
2013-06-08 15:42:00,79.0,54.0,-100.00,SW,225,0.0,0.0,43,-99.99,,,-99.99,,2013-06-08 20:42:00,
2013-06-08 15:53:00,79.0,54.0,-100.00,SW,225,0.0,0.0,43,-99.99,,,-99.99,,2013-06-08 20:53:00,
2013-06-08 16:02:00,79.0,54.0,-100.00,WSW,250,0.0,0.0,43,-99.99,,,-99.99,,2013-06-08 21:02:00,
2013-06-08 16:12:00,78.0,54.0,-100.00,South,175,0.0,0.0,43,-99.99,,,-99.99,,2013-06-08 21:12:00,
2013-06-08 16:22:00,78.0,54.0,-100.00,South,175,0.0,0.0,43,-99.99,,,-99.99,,2013-06-08 21:22:00,
2013-06-08 16:33:00,78.0,55.0,-100.00,SSW,195,0.0,0.0,46,-99.99,,,-99.99,,2013-06-08 21:33:00,
2013-06-08 16:43:00,76.0,55.0,-100.00,SSE,165,0.0,0.0,47,-99.99,,,-99.99,,2013-06-08 21:43:00,
2013-06-08 16:53:00,76.0,55.0,-100.00,SSE,165,0.0,0.0,47,-99.99,,,-99.99,,2013-06-08 21:53:00,
2013-06-08 17:02:00,78.0,54.0,-100.00,South,180,0.0,0.0,45,-99.99,,,-99.99,,2013-06-08 22:02:00,
2013-06-08 17:12:00,78.0,55.0,-100.00,South,185,0.0,0.0,46,-99.99,,,-99.99,,2013-06-08 22:12:00,
2013-06-08 17:23:00,78.0,55.0,-100.00,South,185,0.0,0.0,46,-99.99,,,-99.99,,2013-06-08 22:23:00,
2013-06-08 17:33:00,77.0,55.0,-100.00,South,170,0.0,0.0,48,-99.99,,,-99.99,,2013-06-08 22:33:00,
2013-06-08 17:42:00,76.0,55.0,-100.00,South,185,0.0,0.0,47,-99.99,,,-99.99,,2013-06-08 22:42:00,
2013-06-08 17:53:00,76.0,55.0,-100.00,South,185,0.0,0.0,47,-99.99,,,-99.99,,2013-06-08 22:53:00,
2013-06-08 18:02:00,76.0,55.0,-100.00,South,190,0.0,0.0,48,-99.99,,,-99.99,,2013-06-08 23:02:00,
2013-06-08 18:12:00,77.0,55.0,-100.00,SW,220,0.0,0.0,47,-99.99,,,-99.99,,2013-06-08 23:12:00,
2013-06-08 18:22:00,77.0,55.0,-100.00,SW,220,0.0,0.0,47,-99.99,,,-99.99,,2013-06-08 23:22:00,
2013-06-08 18:32:00,76.0,55.0,-100.00,South,190,0.0,0.0,47,-99.99,,,-99.99,,2013-06-08 23:32:00,
2013-06-08 18:52:00,76.0,55.0,-100.00,South,190,0.0,0.0,48,-99.99,,,-99.99,,2013-06-08 23:52:00,
2013-06-08 19:02:00,76.0,55.0,-100.00,SSE,150,0.0,0.0,48,-99.99,,,-99.99,,2013-06-09 00:02:00,
2013-06-08 19:12:00,76.0,55.0,-100.00,South,180,0.0,0.0,48,-99.99,,,-99.99,,2013-06-09 00:12:00,
2013-06-08 19:22:00,76.0,55.0,-100.00,South,180,0.0,0.0,48,-99.99,,,-99.99,,2013-06-09 00:22:00,
2013-06-08 19:32:00,75.0,55.0,-100.00,SSE,155,0.0,0.0,50,-99.99,,,-99.99,,2013-06-09 00:32:00,
2013-06-08 19:42:00,75.0,55.0,-100.00,SSE,160,0.0,0.0,51,-99.99,,,-99.99,,2013-06-09 00:42:00,
2013-06-08 19:52:00,75.0,55.0,-100.00,SSE,160,0.0,0.0,51,-99.99,,,-99.99,,2013-06-09 00:52:00,
2013-06-08 20:02:00,74.0,56.0,-100.00,South,175,0.0,0.0,53,-99.99,,,-99.99,,2013-06-09 01:02:00,
2013-06-08 20:12:00,74.0,56.0,-100.00,South,170,0.0,0.0,53,-99.99,,,-99.99,,2013-06-09 01:12:00,
2013-06-08 20:22:00,74.0,56.0,-100.00,South,170,0.0,0.0,53,-99.99,,,-99.99,,2013-06-09 01:22:00,
2013-06-08 20:32:00,73.0,56.0,-100.00,SE,130,0.0,0.0,56,-99.99,,,-99.99,,2013-06-09 01:32:00,
2013-06-08 20:42:00,72.0,57.0,-100.00,East,80,0.0,0.0,60,-99.99,,,-99.99,,2013-06-09 01:42:00,
2013-06-08 20:52:00,72.0,57.0,-100.00,East,80,0.0,0.0,60,-99.99,,,-99.99,,2013-06-09 01:52:00,
2013-06-08 21:02:00,71.0,58.0,-100.00,ESE,105,0.0,0.0,65,-99.99,,,-99.99,,2013-06-09 02:02:00,
2013-06-08 21:12:00,69.0,60.0,-100.00,ENE,70,0.0,0.0,73,-99.99,,,-99.99,,2013-06-09 02:12:00,
2013-06-08 21:22:00,69.0,60.0,-100.00,ENE,70,0.0,0.0,73,-99.99,,,-99.99,,2013-06-09 02:22:00,
2013-06-08 21:32:00,68.0,62.0,-100.00,East,100,0.0,0.0,80,-99.99,,,-99.99,,2013-06-09 02:32:00,
2013-06-08 21:42:00,67.0,62.0,-100.00,ESE,110,0.0,0.0,85,-99.99,,,-99.99,,2013-06-09 02:42:00,
2013-06-08 21:52:00,67.0,62.0,-100.00,ESE,110,0.0,0.0,85,-99.99,,,-99.99,,2013-06-09 02:52:00,
2013-06-08 22:02:00,66.0,62.0,-100.00,ESE,110,0.0,0.0,89,-99.99,,,-99.99,,2013-06-09 03:02:00,
2013-06-08 22:12:00,65.0,62.0,-100.00,East,100,0.0,0.0,90,-99.99,,,-99.99,,2013-06-09 03:12:00,
2013-06-08 22:22:00,65.0,62.0,-100.00,East,100,0.0,0.0,90,-99.99,,,-99.99,,2013-06-09 03:22:00,
2013-06-08 22:33:00,64.0,62.0,-100.00,ENE,75,0.0,0.0,94,-99.99,,,-99.99,,2013-06-09 03:33:00,
2013-06-08 22:43:00,63.0,62.0,-100.00,East,100,0.0,0.0,97,-99.99,,,-99.99,,2013-06-09 03:43:00,
2013-06-08 22:53:00,63.0,62.0,-100.00,East,100,0.0,0.0,97,-99.99,,,-99.99,,2013-06-09 03:53:00,
2013-06-08 23:03:00,63.0,62.0,-100.00,East,100,0.0,0.0,99,-99.99,,,-99.99,,2013-06-09 04:03:00,
2013-06-08 23:12:00,62.0,62.0,-100.00,ESE,110,0.0,0.0,99,-99.99,,,-99.99,,2013-06-09 04:12:00,
2013-06-08 23:23:00,62.0,62.0,-100.00,ESE,110,0.0,0.0,99,-99.99,,,-99.99,,2013-06-09 04:23:00,
2013-06-08 23:33:00,62.0,62.0,-100.00,ESE,120,0.0,0.0,99,-99.99,,,-99.99,,2013-06-09 04:33:00,
2013-06-08 23:43:00,62.0,62.0,-100.00,SE,130,0.0,0.0,98,-99.99,,,-99.99,,2013-06-09 04:43:00,
2013-06-08 23:53:00,62.0,62.0,-100.00,SE,130,0.0,0.0,98,-99.99,,,-99.99,,2013-06-09 04:53:00,